Regional Weather Roundup
Issued by NWS

Home | Current Version | Previous Version | Text Only | Print | Product List | Glossary On
Versions: 1 2 3 4 5 6 7 8 9 10 11 12 13 14 15 16 17 18 19 20 21 22 23 24 25 26 27 28 29 30 31 32 33 34 35 36 37 38 39 40 41 42 43 44 45 46 47 48 49 50
000
ASUS43 KMPX 061610
RWRMN
WEATHER ROUNDUP FOR MINNESOTA
NATIONAL WEATHER SERVICE TWIN CITIES/CHANHASSEN MN
1100 AM CDT MON JUL 06 2015


NOTE: "FAIR" INDICATES FEW OR NO CLOUDS BELOW 12,000 FEET WITH NO
SIGNIFICANT WEATHER AND/OR OBSTRUCTIONS TO VISIBILITY. N/A MEANS
CURRENT SKY AND/OR WEATHER CONDITIONS ARE NOT AVAILABLE.

MNZ060>063-068>070-061700-
   Twin Cities Metro

CITY           SKY/WX    TMP DP  RH WIND       PRES   REMARKS
TWIN CITIES    LGT RAIN  73  70  90 NW9       29.81S
ST PAUL        CLOUDY    73  70  90 NW13      29.81R
CRYSTAL        LGT RAIN  69  65  86 N14       29.83R FOG
BLAINE         CLOUDY    70  68  94 MISG      29.84R
LAKEVILLE      LGT RAIN  72  70  94 W9        29.82S
EDEN PRAIRIE   CLOUDY    69  66  90 N14       29.82R
SOUTH ST PAUL  PTSUNNY   73  70  92 W6        29.80S
LAKE ELMO      HVY RAIN  72  70  94 W6        29.82S VSB 1
$$
MNZ001>005-007-008-013>017-022>024-027-028-061700-
   Northwest Minnesota

CITY           SKY/WX    TMP DP  RH WIND       PRES   REMARKS
BEMIDJI        FAIR      60  48  64 N13       30.01R
HALLOCK        PTSUNNY   57  48  72 N12       30.10R
ROSEAU         PTSUNNY   57  48  72 NW14      30.07R
WARROAD        FAIR      55  46  71 NW12G18   30.07R
THIEF RVR FALL FAIR      57  45  62 N16       30.08S
CROOKSTON      FAIR      61  46  59 N18       30.09S
FOSSTON        FAIR      57  46  67 N17G26    30.06R
DETROIT LAKES  FAIR      63  46  55 N12G28    30.04R
MOORHEAD       FAIR      61  48  63 N18G28    30.07R
PARK RAPIDS    PTSUNNY   63  50  62 N16       29.99R
MAHNOMEN       FAIR      59  46  62 N17G25    30.05R
$$
MNZ006-009>011-018-025>026-061700-
   North Central Minnesota

CITY           SKY/WX    TMP DP  RH WIND       PRES   REMARKS
BAUDETTE       FAIR      56  45  66 N21G29    30.02R
FLAG ISLAND    PTSUNNY   54  45  71 NW22G28   30.03S
INTL FALLS     FAIR      63  49  60 N13G20    29.97R
WASKISH        FAIR      61  48  63 NW13      30.01S
BIG FORK       FAIR      61  52  72 N8        29.96S
LONGVILLE      PTSUNNY   61  54  77 N9G18     29.97R
GRAND RAPIDS   CLOUDY    59  54  82 N18G24    29.95R
CRANE LAKE     CLOUDY    57  52  82 NW9       29.95S
COOK           FAIR      59  55  88 NW8       29.95R FOG
WALKER         FAIR      60  52  73 N10G17    29.98S
$$
MNZ012-019>021-037-061700-
   Northeast Minnesota

CITY           SKY/WX    TMP DP  RH WIND       PRES   REMARKS
DULUTH         LGT RAIN  63  59  87 NE10      29.90R FOG
ELY            PTSUNNY   57  55  94 CALM      29.92R FOG
HIBBING        LGT RAIN  59  56  89 NW14      29.94R FOG
DULUTH HARBOR  RAIN      61  59  94 E13       29.90R
TWO HARBORS    PTSUNNY   66  61  82 CALM      29.88R
SILVER BAY     LGT RAIN  64  61  88 CALM      29.87R
GRAND MARAIS     N/A     65  61  87 VRB3      29.85F
G MARAIS ARPRT DRIZZLE   59  55  88 N6        29.89F
$$
MNZ029>031-032-039>041-046>048-054>057-064-061700-
   West Central Minnesota

CITY           SKY/WX    TMP DP  RH WIND       PRES   REMARKS
FERGUS FALLS   FAIR      64  54  68 N15G23    30.01R
WHEATON          N/A     63  57  82 NW17G26   30.03R HAZE
MORRIS           N/A     68  63  83 N18       29.97R HAZE
ALEXANDRIA     CLOUDY    66  60  81 N10G22    29.98R HAZE
ELBOW LAKE     FAIR      65  59  80 N20       29.99R HAZE
WADENA         CLOUDY    63  57  82 N14G23    29.97R HAZE
GLENWOOD       FAIR      66  61  82 N12G20    29.96R HAZE
APPLETON       FAIR      68  63  83 N17       29.97R HAZE
BENSON         FAIR      70  61  73 NE10      29.96R HAZE
ORTONVILLE     PTSUNNY   64  59  82 N17G24    29.99R HAZE
MADISON          N/A     66  63  88 N10       29.98R FOG
WILLMAR        LGT RAIN  66  63  88 N14       29.95R
$$
MNZ033>034-036-042>043-049>051-058-059-061700-
   Central Minnesota

CITY           SKY/WX    TMP DP  RH WIND       PRES   REMARKS
ST CLOUD       LGT RAIN  64  61  90 N8        29.91R FOG
SAUK CENTRE    PTSUNNY   65  60  85 N13       29.95R HAZE
PAYNESVILLE    LGT RAIN  62  60  94 NW8       29.94R
AITKIN         LGT RAIN  63  57  82 N13       29.92R
PINE RIVER       N/A     63  55  77 N13G22    29.99R HAZE
BRAINERD       HAZE      64  59  83 N9        29.94R VSB 1
STAPLES        CLOUDY    64  57  77 N15G23    29.95R HAZE
LONG PRAIRIE   CLOUDY    63  59  88 N9        29.95R FOG
LITTLE FALLS     N/A     64  59  82 N5        29.93R HAZE
LITCHFIELD     DRIZZLE   64  61  88 N15G21    29.92R
BUFFALO        CLOUDY    64  60  85 N12G18    29.89R FOG
MAPLE LAKE     LGT RAIN  66  64  91 NW10      29.91R
$$
MNZ037-044-045-052-053-061700-
   East Central Minnesota

CITY           SKY/WX    TMP DP  RH WIND       PRES   REMARKS
PRINCETON      LGT RAIN  64  61  88 NW8       29.89R
MORA           LGT RAIN  57  55  94 N6        29.91R
CAMBRIDGE      RAIN      63  55  77 N8        29.86R
RUSH CITY      CLOUDY    62  60  96 N14       29.87R
MOOSE LAKE     DRIZZLE   61  61 100 CALM      29.88R
HINCKLEY       DRIZZLE   61  61 100 N12G18    29.88R
CLOQUET        LGT RAIN  63  61  94 N6        29.90R
MCGREGOR       CLOUDY    63  59  88 N9        29.93R
$$
MNZ071>073-080-081-089-090-097-098-061700-
   Southwest Minnesota

CITY           SKY/WX    TMP DP  RH WIND       PRES   REMARKS
MONTEVIDEO     FAIR      68  66  94 NE10      29.96R FOG
GRANITE FALLS  CLOUDY    67  64  89 NW13G18   29.96R FOG
CANBY          CLOUDY    64  62  92 NW8       29.99R FOG
MARSHALL       CLOUDY    66  61  82 N16       29.95R
REDWOOD FALLS  PTSUNNY   67  59  75 N12       29.91R HAZE
OLIVIA         PTSUNNY   64  55  72 N13G18    29.92R HAZE
PIPESTONE      FAIR      66  63  88 N10G18    29.96S FOG
WINDOM         CLOUDY    66  64  94 NW18G24   29.92R FOG
WORTHINGTON    CLOUDY    66  61  82 N23       29.93R
JACKSON        CLOUDY    70  68  94 N7        29.90R
TRACY          LGT RAIN  68  65  92 N13       29.95R
SLAYTON        LGT RAIN  67  65  94 N16       29.96R
$$
MNZ065>067-074>077-082>085-091>093-061700-
   South Central Minnesota

CITY           SKY/WX    TMP DP  RH WIND       PRES   REMARKS
MANKATO        CLOUDY    72  68  88 W8        29.84R
NEW ULM        CLOUDY    66  66 100 N13G18    29.88R FOG
ST JAMES       LGT RAIN  70  68  94 NW16G23   29.88R
FAIRMONT       CLOUDY    72  64  78 SW9       29.86F
GLENCOE        LGT RAIN  66  65  98 N15G22    29.86R
FARIBAULT      CLOUDY    72  70  94 SW5       29.83F
OWATONNA       HVY RAIN  72  68  88 S12       29.84F
WASECA         HVY RAIN  70  68  94 S9        29.86R VSB 1
ALBERT LEA     LGT RAIN  72  70  94 S3        29.85S
$$
MNZ078>079-086>088-094>096-061700-
   Southeast Minnesota

CITY           SKY/WX    TMP DP  RH WIND       PRES   REMARKS
ROCHESTER      CLOUDY    73  69  87 SW15      29.85S
RED WING       LGT RAIN  73  72  94 SW9       29.79F
STANTON        CLOUDY    73  70  88 SW7       29.81S
DODGE CENTER   LGT RAIN  72  70  94 SW12      29.85S
WINONA         FAIR      75  70  83 SW3       29.82F
AUSTIN         LGT RAIN  73  70  88 S8        29.85F
PRESTON        PTSUNNY   71  68  89 SW8G17    29.86S
$$
ABBREVIATIONS USED IN REMARKS
   TC - TEMPERATURES IN CELSIUS
  WCI - WIND CHILL INDEX
   HX - HEAT INDEX
  VSB - VISIBILITY
$$



USA.gov is the U.S. government's official web portal to all federal, state and local government web resources and services.